Location: Gollag?dem
(17.0207°N, 80.7261°E)
Time: 14:38:42
(UTC+00:00)

IRS-1D - Pass Details

Date: 03 August 2024
Orbit: 738 x 812 km, 98.8° (Epoch: 12 September)

Event Time Altitude Azimuth Distance (km) Brightness Sun altitude
Rises 22:36:25 0° 3° (N) 3,202 7.1 -23.2°
Reaches altitude 10° 22:38:45 10° 357° (N) 2,287 6.2 -22.7°
Maximum altitude 22:43:34 47° 285° (WNW) 1,007 3.8 -21.7°
Enters shadow 22:44:04 46° 266° (W) 1,030 3.7 -21.6°
